Wind_Speed
3 2 4 3 1 2 4 7 2 4 4 3 3 5 6 1 6 3 13 9 20 19 18 17 14 13 12 13 13 14 14 13 12 15 15 18 18 19 19 20 19 19 18 17 18 20 20 21 19
2 6 3 2 2 3 5 4 9 6 2 7 5 4 3 5 2 4 8 20 21 20 20 18 15 13 12 13 13 13 15 15 16 15 17 17 19 19 19 19 20 20 19 18 17 18 16 15 14
5 3 2 2 3 7 5 5 4 2 5 3 3 1 2 3 2 10 9 24 22 22 22 17 16 15 15 16 15 16 15 16 16 15 16 17 18 18 18 19 19 19 19 18 17 17 14 12 12
6 3 3 1 9 6 4 2 3 6 1 3 1 3 1 1 4 12 24 24 23 23 22 18 18 17 16 18 16 17 17 17 15 14 15 16 17 18 19 17 17 19 17 17 16 16 12 7 10
4 2 2 3 6 5 4 3 7 5 3 4 6 2 3 2 4 16 30 24 23 24 23 19 18 18 18 18 18 17 17 17 16 15 15 16 17 17 17 17 17 17 17 16 16 16 17 11 8
3 2 2 6 10 5 5 5 6 5 4 3 4 2 2 3 13 21 28 24 22 24 23 19 18 17 18 17 17 17 17 15 15 15 16 17 18 17 17 16 16 17 17 16 15 18 17 14 11
6 4 5 4 6 6 6 8 5 7 7 7 2 6 2 6 16 28 27 24 22 24 23 22 21 17 17 16 16 16 16 16 15 15 16 17 18 18 17 17 17 17 18 16 16 16 16 16 13
4 3 3 6 11 13 6 8 0 6 6 2 1 7 4 6 22 30 26 23 22 23 23 23 22 21 21 19 16 16 16 15 14 16 16 16 17 17 17 16 17 17 17 17 16 15 12 14 13
3 1 6 8 8 5 3 5 1 2 4 2 4 1 1 24 31 27 24 23 23 22 24 24 24 24 23 22 19 18 16 16 15 15 14 14 13 13 14 17 16 17 16 16 15 13 11 11 11
4 4 9 5 5 4 5 5 6 4 4 5 3 3 11 26 28 26 24 21 23 26 25 25 25 25 23 21 19 17 15 14 14 14 13 13 12 11 11 12 13 12 13 13 13 11 10 8 9
6 8 5 4 5 4 3 3 6 5 6 8 12 12 18 25 26 25 24 26 27 29 28 27 26 24 22 20 17 16 16 15 15 13 13 14 13 13 12 12 12 12 12 11 11 11 11 11 9
3 9 5 3 4 5 5 5 5 7 8 1 8 15 17 21 20 28 27 27 31 33 30 28 26 25 22 18 17 16 16 15 15 14 13 12 13 13 13 13 12 11 12 12 12 13 12 11 10
5 4 3 5 6 4 4 7 5 10 10 3 9 14 20 19 23 24 24 25 33 33 32 30 28 25 22 20 18 17 16 14 14 14 13 11 12 13 13 14 14 13 12 11 12 12 12 11 10
1 2 5 6 6 5 6 3 5 12 5 7 9 12 16 19 23 22 23 27 32 33 33 31 28 26 24 22 20 18 17 15 14 14 13 12 12 13 13 13 13 13 13 13 12 12 12 12 11
2 5 6 7 4 6 5 3 10 12 4 7 9 10 12 15 22 26 29 28 33 34 34 32 30 27 24 22 20 19 18 16 15 15 14 13 13 13 13 13 13 13 12 11 11 12 12 12 11
2 2 2 2 5 3 7 5 11 4 6 9 10 9 11 15 20 22 25 27 31 34 37 33 31 29 26 24 22 21 19 17 16 14 13 12 11 11 11 12 13 12 11 11 11 12 13 13 12
2 4 4 7 6 3 5 3 2 2 4 7 7 9 11 10 13 21 27 30 34 39 39 36 33 31 28 25 23 21 19 17 15 14 13 12 10 10 9 10 11 11 11 12 12 13 14 13 10
5 4 4 5 1 2 3 13 12 6 4 10 9 10 12 13 17 22 26 27 32 37 40 38 35 33 30 28 25 22 20 17 14 14 13 12 10 10 9 9 9 9 10 12 12 12 14 15 10
1 3 4 6 4 3 10 12 14 12 6 14 17 10 11 13 11 22 26 28 30 34 36 38 37 35 34 32 29 24 22 20 17 15 15 12 10 9 9 9 9 9 10 10 10 11 13 15 12
6 5 11 8 2 6 6 16 13 16 11 5 7 6 6 7 13 17 25 29 33 34 36 39 37 36 34 33 28 26 24 19 17 17 15 11 10 9 9 9 10 9 9 9 9 9 7 10 15
4 5 5 8 4 2 5 8 4 1 5 8 9 9 7 11 14 14 20 25 27 31 34 38 41 39 35 31 27 24 20 21 19 19 16 12 10 9 9 9 9 9 9 9 8 8 7 6 7
4 2 2 3 2 3 2 8 3 3 5 3 9 12 12 2 7 11 15 21 26 27 31 37 39 38 35 33 30 31 21 20 15 20 15 13 10 10 9 8 8 7 7 7 7 6 6 5 4
2 2 0 2 3 2 3 2 5 5 4 6 8 11 11 6 4 8 12 18 20 24 29 36 39 37 35 31 29 29 23 19 21 19 16 12 11 9 8 7 6 5 5 5 5 5 5 4 3
0 1 2 3 2 2 2 6 4 1 4 6 5 8 8 6 5 6 10 16 19 24 27 32 36 35 34 31 27 26 23 21 23 20 16 14 11 10 7 5 4 3 3 4 3 2 1 1 1
2 3 3 3 1 4 4 0 6 4 3 4 6 7 5 3 5 7 8 12 17 24 28 31 33 31 33 30 26 22 21 21 19 18 15 13 11 9 7 5 3 3 2 1 1 2 2 2 2
2 3 3 4 2 3 1 5 3 4 6 6 7 6 5 3 2 5 8 13 18 20 25 28 29 29 32 29 26 22 20 18 15 13 11 10 9 8 6 4 3 2 1 2 3 4 5 4 4
2 2 5 1 3 1 3 3 2 3 4 2 3 4 3 4 5 6 9 13 17 20 25 26 27 29 31 29 25 22 19 16 14 12 11 10 9 7 5 4 3 3 3 4 5 5 6 7 7
1 4 3 1 4 5 3 4 4 3 0 3 3 4 2 3 5 7 9 13 15 18 20 26 30 35 34 29 25 22 19 15 13 11 10 8 7 7 5 4 4 4 4 5 6 7 8 10 10
1 2 2 1 2 3 4 5 4 8 6 2 3 5 5 5 3 4 7 12 14 16 19 23 29 31 32 28 25 22 18 15 12 10 9 8 7 6 5 4 5 5 6 7 9 10 11 12 13
2 3 4 3 4 3 3 5 3 2 1 2 5 3 3 4 4 4 7 11 14 16 18 22 27 31 32 28 24 20 16 13 11 10 8 8 7 6 6 6 6 7 8 9 11 13 13 14 14
Wind_Direction
284 220 168 55 105 65 237 239 206 199 203 179 137 154 187 103 177 205 146 149 144 148 148 137 137 130 126 102 99 94 95 90 87 80 82 79 76 75 72 74 74 74 72 75 72 76 91 85 81
151 135 92 90 137 204 240 212 218 206 107 128 121 122 182 214 176 159 173 154 149 146 143 134 133 132 124 117 109 105 97 94 84 80 79 81 80 79 77 75 77 76 73 69 74 72 102 109 94
147 143 100 165 188 220 234 218 228 139 139 166 137 278 177 212 175 169 169 155 149 143 140 138 134 132 127 119 118 111 103 92 87 82 81 81 82 80 78 74 69 74 70 67 65 71 86 98 98
153 56 60 196 242 266 237 333 154 134 204 230 170 207 267 221 163 177 159 155 150 143 142 142 139 137 130 127 125 119 111 99 93 89 84 84 82 78 76 75 72 73 68 72 67 65 72 105 96
92 67 195 250 255 261 249 249 172 178 178 177 169 227 237 200 166 162 160 156 152 144 139 141 140 139 135 130 130 123 112 112 109 105 94 87 84 77 73 69 70 73 71 67 70 68 65 74 122
83 111 169 236 245 244 250 184 171 191 174 156 187 172 219 165 161 162 161 157 152 146 140 139 140 141 135 135 130 122 116 116 112 108 102 96 89 83 79 75 71 70 70 68 69 68 65 67 96
146 134 214 228 251 268 224 148 194 192 180 217 148 191 128 186 172 163 162 161 154 152 148 146 142 140 135 128 123 122 119 118 113 106 98 93 92 84 77 74 71 68 67 66 65 69 66 63 70
118 140 196 217 238 265 184 177 104 171 219 54 166 220 216 181 166 163 164 162 160 160 157 154 151 147 138 125 121 119 118 115 108 107 106 105 96 89 78 79 70 70 68 62 64 64 81 78 75
137 171 238 237 172 238 162 186 216 109 126 223 199 261 41 153 159 160 162 166 166 163 163 160 156 152 144 134 127 124 118 117 111 107 112 112 106 101 92 74 73 71 67 67 67 68 78 84 95
170 189 230 214 201 224 187 194 169 167 174 225 222 126 139 154 163 167 174 173 172 167 163 167 164 161 161 155 150 147 139 126 119 117 116 113 112 103 91 84 80 84 75 72 71 75 72 72 83
182 225 196 243 225 183 192 213 174 168 232 212 205 173 164 167 176 180 183 181 176 172 168 168 170 169 171 161 156 145 134 129 120 110 107 108 105 100 95 89 79 71 71 71 65 64 65 65 71
218 248 204 244 212 166 202 135 199 202 237 161 216 162 163 178 186 186 184 182 179 178 176 174 175 172 172 166 156 145 137 129 121 113 108 106 103 96 89 82 76 73 62 59 60 62 64 66 66
222 248 203 242 237 231 135 222 221 243 231 134 125 157 176 183 191 192 187 182 183 181 179 179 179 177 174 170 160 152 145 137 126 119 112 108 103 95 88 83 78 73 68 67 63 62 62 64 68
190 249 261 257 236 219 205 258 153 257 172 170 170 183 186 189 188 182 180 182 185 185 182 179 178 178 175 170 165 158 150 140 130 121 115 110 105 100 92 84 77 70 63 62 64 63 59 61 69
312 300 292 227 223 228 161 230 230 243 132 188 204 199 197 199 188 192 186 184 182 186 182 179 177 176 173 168 163 157 150 142 133 123 115 106 99 96 93 90 82 73 67 59 59 64 64 68 69
292 121 282 250 153 234 172 260 250 204 177 218 215 206 203 200 196 192 187 184 182 181 182 177 176 174 172 169 163 156 151 147 138 129 123 113 101 92 87 83 79 74 70 64 60 57 53 57 66
315 258 219 312 195 119 192 257 270 137 193 256 237 220 214 204 197 192 185 182 180 184 180 176 177 172 168 164 160 155 153 151 143 138 134 125 112 100 91 84 77 69 65 62 57 51 48 45 61
228 236 243 252 205 160 242 253 274 255 224 256 250 224 206 197 203 189 182 180 179 180 180 178 176 172 168 162 159 155 155 153 147 142 140 133 121 112 105 97 88 72 62 57 54 51 43 40 57
244 225 247 254 209 204 243 258 263 268 225 259 252 248 215 213 189 180 175 174 173 174 172 176 173 171 168 163 157 155 155 154 152 152 151 144 132 122 114 111 101 87 76 65 56 48 41 36 43
242 270 272 278 183 196 284 276 252 250 251 278 321 327 232 181 172 173 172 171 172 170 171 174 174 172 173 172 168 162 157 158 158 156 155 152 144 135 131 129 121 110 102 92 76 62 55 42 39
221 211 226 250 332 236 311 276 258 354 84 54 29 358 330 203 180 172 172 173 171 171 170 170 176 175 176 174 164 158 153 153 154 161 162 159 154 146 142 136 128 122 114 107 93 78 75 74 53
261 268 289 274 359 267 337 294 199 250 97 49 15 8 354 138 152 164 167 170 172 172 169 171 175 177 177 174 171 170 165 163 171 167 164 160 157 151 146 141 132 125 114 110 105 94 87 93 83
260 19 286 173 187 359 186 205 261 6 7 332 357 3 3 23 111 157 166 167 166 163 165 171 176 177 177 178 181 179 174 170 167 168 163 162 160 158 151 145 136 127 116 108 109 109 101 96 101
9 299 71 53 104 258 248 188 289 38 254 317 334 354 10 26 82 111 139 150 153 159 165 170 174 176 179 181 184 181 176 168 162 165 165 166 165 162 160 154 145 125 115 115 111 100 87 56 2
90 63 317 317 338 246 347 321 258 287 282 241 293 321 350 58 113 128 140 150 154 162 167 172 173 173 181 181 180 181 176 170 167 167 171 169 170 173 174 172 164 153 144 136 295 296 301 287 249
75 145 178 261 270 288 210 235 273 246 253 254 274 289 328 26 101 156 157 165 167 169 171 171 170 170 181 181 179 177 172 167 166 167 169 175 178 180 188 197 200 205 244 279 294 297 298 290 270
213 155 150 171 234 256 247 277 11 334 320 292 250 185 183 187 179 180 162 183 167 169 174 173 170 172 179 182 176 171 168 167 168 172 177 183 185 191 209 220 237 269 288 304 306 303 303 294 289
200 157 86 206 230 233 271 269 187 213 72 343 350 343 300 219 191 182 179 177 176 175 173 176 178 181 182 182 179 174 171 172 175 178 180 185 190 195 213 226 249 271 288 299 305 309 308 299 293
138 242 220 161 246 225 272 260 217 164 145 182 292 291 286 299 258 199 185 182 176 171 171 174 183 181 181 181 178 175 173 175 177 184 187 189 194 201 210 230 245 266 289 301 303 303 301 298 296
154 212 188 217 259 231 230 266 114 276 168 218 280 291 275 265 239 205 189 175 165 166 171 176 179 184 183 180 178 176 176 179 181 182 195 196 199 214 223 240 268 290 295 296 297 298 293 289 283
Height
793 793 794 795 810 815 812 799 793 794 792 791 792 793 792 796 795 798 808 807 809 813 816 817 820 822 824 825 828 830 830 832 834 832 833 833 835 835 836 835 836 836 837 837 835 834 834 836 838
792 793 795 804 812 814 798 794 790 784 789 795 796 795 794 786 802 805 807 806 809 812 814 817 820 822 825 826 829 831 833 834 834 835 834 835 836 837 838 838 838 837 838 839 838 836 836 838 840
791 793 798 804 814 801 794 788 783 791 796 793 795 799 793 788 800 800 801 805 808 811 814 817 819 823 824 826 830 832 833 834 835 837 838 838 837 838 839 837 838 837 838 839 839 839 838 839 840
791 794 804 807 803 799 790 781 786 793 795 796 793 790 799 797 797 798 801 805 808 811 814 817 820 823 825 826 830 831 832 834 837 839 839 839 838 839 839 842 841 836 840 840 842 842 840 839 842
790 798 805 810 803 794 788 783 788 788 788 790 792 785 793 796 796 799 803 806 809 812 814 818 820 822 825 827 829 831 831 834 837 838 840 840 839 839 840 841 840 842 840 842 842 842 839 842 839
794 798 807 803 791 787 782 780 784 783 786 792 792 792 789 795 797 799 803 807 810 813 815 818 822 824 825 827 829 829 830 835 837 838 838 840 839 841 842 843 843 842 841 842 843 839 842 843 839
789 797 799 798 792 786 775 779 780 779 783 784 784 781 792 795 796 799 803 807 811 814 816 819 822 825 827 829 830 831 833 835 836 838 838 838 838 840 841 842 843 843 841 843 842 841 841 842 842
786 789 795 791 777 771 769 776 777 775 775 784 784 775 775 788 794 799 804 807 810 813 816 819 821 824 825 828 832 833 835 837 837 836 836 837 838 840 840 841 842 843 843 842 840 841 842 842 842
785 792 788 774 781 768 776 774 778 778 778 783 781 782 786 786 792 800 803 806 809 813 816 818 821 823 826 828 831 833 835 837 836 836 836 836 838 840 841 842 841 842 842 843 842 843 842 841 842
784 790 777 772 769 765 770 772 772 774 777 777 779 784 786 789 791 793 797 801 805 809 813 817 820 823 825 828 831 833 833 835 836 836 837 838 839 840 841 841 842 842 842 842 842 843 840 841 841
777 774 769 763 764 763 766 771 770 770 771 763 762 771 782 786 789 792 794 797 800 807 811 814 818 822 826 828 830 833 835 835 837 838 838 839 841 842 842 842 843 842 843 842 842 842 841 840 843
775 766 765 760 759 764 766 767 769 768 748 753 755 764 776 781 782 783 788 793 797 802 808 813 817 820 824 828 831 833 835 836 837 838 839 841 842 843 843 843 844 844 844 844 844 842 842 844 844
771 764 762 761 761 763 765 762 761 759 751 755 759 763 768 772 777 782 786 792 796 799 803 809 814 818 822 826 830 833 835 837 838 839 841 842 843 843 844 845 845 846 847 846 846 846 845 845 846
762 763 762 760 759 761 763 763 764 743 746 755 759 761 764 766 770 778 782 787 791 798 802 807 812 817 821 825 828 832 835 837 839 841 842 843 844 844 845 846 847 847 848 848 847 846 847 847 848
761 764 761 759 756 758 761 766 760 739 750 754 758 759 762 764 768 769 775 781 786 794 800 806 811 816 821 824 828 832 835 837 839 841 843 844 845 846 846 846 848 848 848 849 849 849 849 848 847
763 766 762 752 759 756 755 745 737 746 750 749 752 756 759 760 762 769 774 779 785 791 796 803 809 813 818 823 827 831 835 837 840 842 843 844 846 847 848 847 847 848 848 849 850 849 849 848 848
773 765 769 758 758 759 759 749 739 752 752 748 748 752 755 760 762 765 768 772 779 785 792 800 806 812 816 822 827 830 834 837 839 841 842 844 845 847 848 848 849 849 849 848 849 850 850 849 849
767 771 772 763 755 761 761 756 744 746 751 743 742 743 747 752 753 760 765 771 777 783 789 796 803 809 814 819 825 830 833 836 839 840 843 845 846 846 848 849 850 850 851 850 849 850 850 850 849
761 766 765 758 754 757 752 746 741 735 746 736 727 733 741 745 749 754 760 767 775 781 787 794 800 807 811 816 821 828 831 835 838 840 843 845 847 847 848 849 850 850 851 852 851 850 850 850 850
766 767 761 755 755 758 754 739 738 726 722 730 734 736 738 743 747 753 757 762 768 775 783 791 799 805 811 815 820 824 830 836 839 842 844 845 846 847 848 849 850 851 852 853 853 853 852 852 851
765 764 761 752 758 762 762 736 730 719 731 739 745 746 740 739 743 751 757 763 768 772 778 785 793 801 808 814 820 826 831 835 838 841 844 846 847 847 848 850 851 852 852 853 853 854 853 855 855
757 760 760 758 758 758 763 733 716 710 732 738 748 749 748 742 747 753 758 763 767 773 779 784 792 799 806 811 816 821 825 831 835 839 843 846 847 848 849 850 851 852 852 853 853 855 855 855 856
751 762 760 761 763 773 765 761 728 730 731 743 756 755 755 752 753 757 759 764 771 776 779 784 791 798 805 811 816 820 824 829 833 837 841 845 848 848 849 850 851 851 851 852 853 854 854 855 857
765 763 770 780 776 780 753 747 739 745 754 757 759 757 757 758 758 762 765 767 770 776 784 787 791 798 803 809 815 819 822 826 831 835 839 843 846 847 848 849 850 850 850 851 853 853 853 854 855
763 765 766 768 782 752 774 767 749 764 773 773 768 760 759 759 760 763 767 771 774 775 780 786 791 796 802 807 813 818 822 826 830 833 837 840 843 845 846 847 848 848 849 849 850 851 852 852 853
770 768 770 764 761 766 783 753 748 777 777 776 770 766 758 759 762 764 766 771 773 779 781 784 790 795 801 806 811 817 821 825 830 833 836 839 841 843 844 845 845 846 847 848 848 848 849 850 851
777 775 780 786 788 776 757 751 758 760 764 766 764 760 761 759 760 764 766 774 772 775 780 784 790 795 800 805 810 815 820 823 826 830 833 836 838 839 841 842 843 844 844 845 845 846 845 846 847
774 778 793 792 773 761 768 769 748 767 758 758 758 759 757 758 761 763 766 768 771 775 779 783 788 791 798 805 810 814 817 821 825 829 831 834 836 837 839 840 841 842 842 843 842 842 843 844 844
786 784 783 789 773 772 747 753 770 750 750 752 757 758 759 757 759 760 763 767 769 773 777 782 788 792 797 804 809 812 815 819 822 828 830 831 834 835 836 838 839 840 840 840 839 840 841 841 840
790 782 782 763 780 767 767 749 764 763 758 759 753 756 756 757 758 760 763 766 767 771 776 781 785 790 795 801 807 812 815 818 821 824 829 830 831 833 834 835 835 836 836 837 837 837 838 839 839